Powrót do katalogu

THOR ABLESTAR DEB

AktywnyLEO
NORAD 48826·DEBRIS·🇺🇸 United States

Wystrzelony Jun 29, 1961 z Cape Canaveral Space Force Station

Loading…

Następne Przeloty (najbliższe 24 godziny)

TLE

ŚwieżeSource: Space-Track

Epoka: Sep 13, 2026, 21:50 UTC

1 48826U 61015NE  26256.91013236  .00000731  00000-0  29133-3 0  9999
2 48826  66.5965 127.7961 0054716 283.8641  90.9453 14.33381052667419

Śledź THOR ABLESTAR DEB w czasie rzeczywistym z AllMySat

Download on the App Store